Location: Zagreb
(45.8000°N, 16.0000°E)
Time: 19:51:39
(UTC+02:00)

SR - Visible Passes

Search period start: 09 August 2020 00:00
Search period end: 19 August 2020 00:00
Orbit: 584 x 871 km, 66.7° (Epoch: 08 August)

Date Brightness Start Highest point End Pass type
(mag) Time Alt. Az. Time Alt. Az. Time Alt. Az.
09 Aug ? 00:05:21 20° W 00:07:32 30° NW 00:11:22 10° NNE visible
09 Aug ? 21:36:19 18° ESE 21:36:19 18° ESE 21:39:01 10° ENE visible
09 Aug ? 23:15:37 29° WSW 23:17:41 56° NW 23:21:58 10° NNE visible
10 Aug ? 00:59:16 10° NW 01:00:38 11° NNW 01:01:58 10° NNW visible
10 Aug ? 22:25:08 22° SSW 22:27:59 71° ESE 22:32:19 10° NE visible
11 Aug ? 00:07:20 10° W 00:10:26 18° NW 00:13:27 10° N visible
11 Aug ? 21:34:17 10° S 21:38:25 34° ESE 21:42:22 10° NE visible
11 Aug ? 23:16:24 10° WSW 23:20:25 31° NW 23:24:17 10° NNE visible
12 Aug ? 20:46:07 10° SSE 20:48:58 17° ESE 20:51:45 10° ENE visible
12 Aug ? 22:26:05 10° SW 22:30:34 60° NW 22:34:52 10° NNE visible
13 Aug ? 00:11:53 10° NW 00:13:28 12° NNW 00:15:02 10° NNW visible
13 Aug ? 21:36:21 10° SSW 21:40:53 66° ESE 21:45:11 10° NE visible
13 Aug ? 23:20:06 10° W 23:23:17 19° NW 23:26:24 10° N visible
14 Aug ? 04:33:31 10° N 04:36:02 15° NE 04:38:35 10° ENE visible
14 Aug ? 20:47:18 10° S 20:51:19 31° ESE 20:55:11 10° NE visible
14 Aug ? 22:29:14 10° WSW 22:33:17 33° NW 22:37:12 10° NNE visible
15 Aug ? 21:38:58 10° SW 21:43:28 64° NW 21:47:45 10° NNE visible
15 Aug ? 23:24:33 10° WNW 23:26:19 12° NW 23:28:04 10° N visible
16 Aug ? 04:35:27 10° N 04:38:59 24° NE 04:42:38 10° E visible
16 Aug ? 20:49:18 10° SSW 20:53:46 62° ESE 20:58:03 10° NE visible
16 Aug ? 22:32:53 10° W 22:36:09 20° NW 22:39:20 10° N visible
17 Aug ? 03:46:29 10° N 03:48:52 14° NE 03:51:19 10° ENE visible
17 Aug ? 21:42:04 10° WSW 21:46:09 35° NW 21:50:07 10° NNE visible
18 Aug ? 04:37:40 10° NNW 04:41:47 40° NE 04:46:06 10° ESE visible
18 Aug ? 20:51:51 10° SW 20:56:20 69° NW 21:00:38 10° NNE visible
18 Aug ? 22:37:12 10° WNW 22:39:09 13° NW 22:41:05 10° N visible
